Flag for U.S.A. Weather past 2 weeks in French Lick, Indiana, U.S.A.

Now
30 °F

Passing clouds.


Feels Like: 24 °F
Forecast: 23 / 37 °F
Wind: 6 mph from North

Location: Huntingburg Airport

Current Time: Dec 18, 2014 at 8:41:26 PM

Latest Report: Dec 18, 2014 at 8:15 PM


Visibility: 10 mi

Pressure: 30.26 "Hg

Humidity: 80%

Dew point: 25 °F

Location of French LickLocation

Historic Weather in French Lick — Graph

°F

French Lick temperature yesterday

Maximum temperature yesterday: 36 °F (at 2:35 PM)
Minimum temperature yesterday: 28 °F (at 9:15 PM)
Average temperature yesterday: 32 °F

Past Weeks' High & Low Weather Summary

 TemperatureHumidityPressure
High57 °F (Dec 5, 6:35 PM)94% (Dec 5, 11:35 AM)30.58 "Hg (Dec 5, 11:35 AM)
Low21 °F (Dec 12, 5:55 AM)56% (Dec 11, 3:35 PM)29.72 "Hg (Dec 16, 12:35 AM)
Average39 °F79%30.24 "Hg
* Reported Dec 3 7:15 PM — Dec 18 7:35 PM, French Lick, Weather by CustomWeather, © 2014

Note: Actual official high and low records may vary slightly from our data, if they occured in-between our weather recording intervals... More about our weather records

Advertising

French Lick weather history for previous 24 hours

 ConditionsComfort  
Time TempWeatherWind HumidityBarometerVisibility
7:35 PM
Dec 18
32 °FOvercast.5 mph75%30.25 "Hg10 mi
7:15 PM32 °FOvercast.3 mph75%30.25 "Hg10 mi
6:55 PM32 °FOvercast.3 mph69%30.24 "Hg10 mi
6:35 PM32 °FPassing clouds.5 mph75%30.25 "Hg10 mi
6:15 PM32 °FPassing clouds.5 mph75%30.24 "Hg10 mi
5:55 PM32 °FPassing clouds.3 mph75%30.24 "Hg10 mi
5:35 PM32 °FPartly cloudy.3 mph75%30.24 "Hg9 mi
5:15 PM32 °FBroken clouds.5 mph69%30.24 "Hg9 mi
4:55 PM32 °FPartly sunny.5 mph75%30.24 "Hg9 mi
4:35 PM32 °FPartly sunny.5 mph75%30.24 "Hg8 mi
4:15 PM32 °FPartly sunny.5 mph75%30.24 "Hg7 mi
3:55 PM32 °FBroken clouds.5 mph75%30.24 "Hg7 mi
3:35 PM32 °FScattered clouds.3 mph75%30.23 "Hg7 mi
3:15 PM32 °FMore clouds than sun.6 mph69%30.23 "Hg7 mi
2:55 PM34 °FMore clouds than sun.5 mph65%30.24 "Hg8 mi
2:35 PM34 °FMore clouds than sun.3 mph70%30.25 "Hg8 mi
2:15 PM34 °FOvercast.No wind70%30.25 "Hg8 mi
1:55 PM32 °FMore clouds than sun.5 mph69%30.25 "Hg8 mi
1:35 PM32 °FMore clouds than sun.No wind69%30.25 "Hg8 mi
1:15 PM32 °FMostly cloudy.No wind69%30.26 "Hg8 mi
12:55 PM30 °FMostly cloudy.No wind75%30.27 "Hg7 mi
12:35 PM30 °FPartly sunny.No wind75%30.28 "Hg8 mi
12:15 PM30 °FScattered clouds.No wind75%30.28 "Hg8 mi
11:55 AM30 °FPartly sunny.3 mph75%30.30 "Hg8 mi
11:35 AM30 °FPartly sunny.5 mph75%30.30 "Hg7 mi
11:15 AM30 °FPartly sunny.3 mph69%30.32 "Hg8 mi
10:55 AM28 °FMore clouds than sun.3 mph74%30.32 "Hg8 mi
10:35 AM30 °FOvercast.6 mph75%30.31 "Hg7 mi
10:15 AM28 °FPartly sunny.7 mph80%30.29 "Hg8 mi
9:55 AM28 °FBroken clouds.3 mph80%30.31 "Hg7 mi
9:35 AM28 °FPartly sunny.3 mph74%30.31 "Hg7 mi
9:15 AM28 °FPartly sunny.5 mph74%30.29 "Hg7 mi
8:55 AM28 °FMostly cloudy.7 mph74%30.29 "Hg7 mi
8:35 AM28 °FOvercast.7 mph74%30.28 "Hg7 mi
8:15 AM28 °FPartly sunny.5 mph74%30.30 "Hg8 mi
7:55 AM28 °FPassing clouds.3 mph74%30.30 "Hg10 mi
7:35 AM28 °FPassing clouds.5 mph74%30.29 "Hg10 mi
7:15 AM28 °FOvercast.5 mph74%30.29 "Hg10 mi
6:55 AM28 °FOvercast.3 mph74%30.28 "Hg10 mi
6:35 AM28 °FOvercast.5 mph74%30.28 "Hg10 mi
6:15 AM28 °FPassing clouds.3 mph74%30.28 "Hg10 mi
5:55 AM28 °FPassing clouds.3 mph74%30.28 "Hg10 mi
5:35 AM28 °FPassing clouds.3 mph74%30.29 "Hg10 mi
5:15 AM27 °FPassing clouds.5 mph80%30.28 "Hg10 mi
4:55 AM27 °FClear.5 mph80%30.28 "Hg10 mi
4:35 AM28 °FPassing clouds.5 mph74%30.28 "Hg10 mi
4:15 AM28 °FPassing clouds.6 mph74%30.28 "Hg10 mi
3:55 AM28 °FPassing clouds.5 mph74%30.29 "Hg10 mi
3:35 AM28 °FPassing clouds.5 mph74%30.30 "Hg10 mi
3:15 AM28 °FPassing clouds.3 mph74%30.31 "Hg10 mi
2:55 AM28 °FPassing clouds.3 mph74%30.31 "Hg10 mi
2:35 AM28 °FClear.3 mph74%30.31 "Hg10 mi
2:15 AM28 °FClear.3 mph74%30.30 "Hg10 mi
1:55 AM28 °FClear.7 mph74%30.30 "Hg10 mi
1:35 AM28 °FClear.7 mph74%30.30 "Hg10 mi
1:15 AM28 °FClear.7 mph74%30.30 "Hg10 mi
12:55 AM28 °FClear.6 mph74%30.31 "Hg10 mi
12:35 AM28 °FClear.5 mph74%30.30 "Hg10 mi
12:15 AM28 °FClear.6 mph74%30.30 "Hg10 mi
11:55 PM
Dec 17
28 °FClear.6 mph74%30.29 "Hg10 mi
11:35 PM28 °FClear.8 mph74%30.28 "Hg10 mi
11:15 PM28 °FClear.6 mph74%30.30 "Hg10 mi
10:35 PM28 °FClear.5 mph74%30.29 "Hg10 mi
10:15 PM28 °FClear.5 mph74%30.29 "Hg10 mi
9:55 PM28 °FClear.3 mph74%30.30 "Hg10 mi
9:35 PM28 °FClear.5 mph74%30.30 "Hg10 mi
9:15 PM28 °FClear.6 mph74%30.29 "Hg10 mi
8:55 PM30 °FPassing clouds.6 mph69%30.30 "Hg10 mi
8:35 PM30 °FOvercast.9 mph69%30.30 "Hg10 mi
8:15 PM32 °FOvercast.8 mph69%30.31 "Hg10 mi
Weather by CustomWeather, © 2014

See weather overviewHow to use our weather pages